Lid_Strength_Index
-0 -0 -0 -0 0 1 1 1 1 2 2 2 2 2 2 2 3 5 7 3 2 -0 -0 3 3 4 3 4 5 7 8 11 11 10 8 7 8 6 5 6 6 5 5 4 3
-1 -1 -1 -0 0 1 1 1 2 2 2 2 2 2 2 2 5 6 2 0 -1 -2 4 5 5 5 5 5 5 6 10 10 9 8 7 7 7 7 7 8 8 6 4 3 3
-1 -0 -0 0 0 1 1 1 2 2 2 2 2 2 3 3 7 5 -1 -0 -1 -1 4 4 4 6 6 6 7 8 9 9 8 8 6 7 7 6 8 9 7 8 6 4 4
1 0 -0 0 0 1 2 2 2 2 3 3 2 3 3 5 9 6 -1 -1 -2 0 4 4 5 6 7 8 7 8 8 8 8 6 6 7 6 7 7 7 5 5 4 4 4
2 2 1 0 1 1 2 2 3 3 3 3 3 3 5 9 10 1 -1 -2 -0 2 4 5 5 6 7 7 8 9 8 7 8 6 6 6 7 8 8 5 4 4 4 4 4
3 3 2 1 1 2 2 2 3 3 3 3 3 3 7 11 3 1 1 2 2 3 4 4 4 4 6 6 8 7 8 7 6 6 6 8 8 7 7 5 5 5 5 4 4
4 3 3 2 2 2 2 3 3 3 3 3 3 5 8 10 4 3 2 3 3 3 5 4 3 5 5 6 6 6 8 7 7 7 7 6 9 10 6 5 6 6 5 4 4
3 4 4 4 3 3 3 3 4 4 3 4 4 6 9 5 4 5 3 3 3 3 3 3 3 5 5 5 6 9 9 10 7 7 7 7 12 9 6 6 7 6 5 5 4
3 4 4 4 4 3 3 4 4 4 4 4 7 7 10 4 6 5 3 4 5 4 4 3 4 6 6 8 9 9 11 10 9 6 7 8 11 8 6 7 7 6 6 5 4
4 4 4 4 4 4 4 4 5 5 5 5 6 10 9 9 5 4 4 3 4 5 5 5 6 7 7 9 12 11 11 10 10 8 8 9 10 8 7 7 7 7 6 5 5
3 4 4 4 3 4 5 7 9 9 8 9 9 11 10 6 4 5 4 4 4 5 7 7 8 10 8 8 9 9 10 10 9 8 8 9 10 9 8 7 8 7 7 6 5
3 4 4 4 3 4 5 8 8 7 10 8 8 8 7 5 7 5 3 5 6 8 7 8 10 8 8 9 9 9 10 10 9 9 8 9 10 9 8 8 7 7 7 6 5
2 3 4 5 4 5 7 7 5 5 9 9 8 8 7 5 7 6 4 6 7 9 8 9 8 8 8 9 9 9 10 10 10 10 9 9 10 10 8 7 7 6 5 5 5
2 3 4 4 5 6 7 5 4 5 13 12 10 7 6 5 8 4 5 5 7 8 8 8 8 8 9 9 9 11 8 9 10 11 12 10 13 10 9 9 8 7 6 6 5
1 2 3 3 6 6 5 4 4 6 19 11 8 5 5 8 8 7 5 6 8 8 8 9 8 9 9 9 8 9 8 9 9 11 11 11 12 10 9 11 9 7 6 5 5
1 1 2 3 4 4 4 3 4 12 19 13 8 9 9 9 9 8 6 5 6 8 8 8 7 7 7 8 8 8 9 9 10 11 15 12 12 11 10 9 8 7 6 5 5
1 1 2 1 5 1 2 4 13 17 11 13 11 10 10 11 10 9 8 9 9 11 11 9 9 7 7 9 8 8 10 14 15 16 16 11 13 11 8 7 7 7 6 5 4
1 1 1 3 1 1 2 9 17 13 13 10 10 11 12 11 11 9 10 10 9 10 11 12 13 9 7 8 9 9 10 15 18 18 15 12 15 10 7 6 6 6 6 5 4
1 3 3 2 1 1 6 14 14 12 10 10 11 13 13 12 10 9 10 9 9 9 11 12 12 8 7 7 7 10 12 9 14 14 16 13 11 8 8 7 7 6 6 6 6
3 4 5 2 0 3 9 12 11 9 8 9 13 12 14 11 11 11 11 9 10 8 7 9 12 9 8 7 8 9 8 13 13 18 18 14 14 12 9 8 8 7 6 5 5
3 6 4 1 0 6 12 12 11 8 7 10 11 12 12 11 10 11 11 9 8 9 8 8 9 10 9 10 10 10 11 11 11 13 16 17 14 9 8 7 7 7 7 5 5
5 10 3 1 9 8 11 10 9 9 7 8 8 10 11 10 11 11 10 8 8 7 9 8 10 13 11 9 8 9 10 10 15 14 14 14 14 8 7 7 7 7 7 5 4
8 7 2 2 12 11 9 10 9 9 8 9 9 8 8 9 12 10 9 7 7 8 9 8 11 14 12 10 9 10 10 10 11 12 15 16 13 8 8 8 7 7 7 7 5
6 10 7 5 6 9 10 11 11 8 9 8 9 8 9 10 9 10 10 7 7 7 7 7 10 12 14 12 10 12 10 10 10 14 14 13 11 9 8 8 7 7 7 7 5
6 9 7 11 9 9 9 10 12 11 8 8 9 9 10 12 11 11 8 8 7 7 7 7 11 11 11 10 10 10 10 10 11 11 13 11 12 9 8 8 8 8 6 6 6
8 8 6 8 8 9 9 11 12 10 9 10 10 9 9 11 10 11 9 9 10 8 9 8 11 11 12 11 11 11 10 10 10 11 10 10 11 8 8 9 8 8 6 7 7
5 5 6 8 9 10 11 10 10 8 8 7 8 9 10 9 7 7 7 7 7 8 9 10 12 12 14 12 11 14 12 10 10 10 9 12 9 8 9 9 9 8 8 8 9